Tracking 30923 objects as of 1-Jul-2025
HD Live streaming from Space Station
objects crossing your sky now

DELTA 1 DEB

Track DELTA 1 DEB now!
10-day predictions


NORAD ID: 2775
Int'l Code: 1966-087D
Perigee: 1,285.0 km
Apogee: 1,479.4 km
Inclination: 100.9 °
Period: 113.2 minutes
Semi major axis: 7753 km
RCS: 0.079 m2 (small)
Launch date: October 2, 1966
Source: United States (US)
Launch site: AIR FORCE WESTERN TEST RANGE (AFWTR)

Note: This is SATELLITE DEBRIS
Your satellite tracking list
STARLINK-1495
Track 1 satellite(s)




NASA's NSSDC Master Catalog

Two Line Element Set (TLE):
1 02775U 66087D   25180.97330791 -.00000033  00000-0  39688-4 0  9998
2 02775 100.9291 196.7162 0125337 131.2110 297.8611 12.71684130725569
Source of the keplerian elements: AFSPC